Simultaneous Nadir Overpasses (SNOs) Predictions

Prediction of SNOs between GOES-15 and LANDSAT-8 Satellite Orbit:

Table of predicted SNOs for the next 14.0 days since TLE Epoch: 3/9/2024
Index Date Time (GOES-15) GOES-15 Lat,Lon LANDSAT-8 Lat,Lon Distance(km) Time Diff (sec)
1 03/09/2024 06:08:34 -0.02, 61.26 0.13, 60.58 77.79 80
2 03/11/2024 05:59:02 -0.02, 61.25 -0.48, 63.54 259.50 80
3 03/11/2024 18:20:27 0.02, 61.20 -0.57, 58.33 326.20 80
4 03/13/2024 18:05:35 0.02, 61.20 0.06, 61.29 10.82 80
5 03/15/2024 17:53:22 0.02, 61.20 0.65, 64.25 346.86 80
6 03/16/2024 06:14:37 -0.03, 61.24 0.40, 59.09 244.71 80
7 03/18/2024 06:05:05 -0.04, 61.25 -0.22, 62.05 91.21 80
8 03/18/2024 18:26:28 0.05, 61.20 -0.87, 56.85 493.89 80
9 03/20/2024 05:52:52 -0.04, 61.25 -0.85, 65.01 427.17 80
10 03/20/2024 18:14:15 0.05, 61.20 -0.24, 59.81 158.02 80
11 03/22/2024 17:59:21 0.04, 61.21 0.36, 62.78 178.06 80
